Regional Weather Roundup
Issued by NWS Lake Charles, LA

Home | Current Version | Previous Version | Text Only | Print | Product List | Glossary On
Versions: 1 2 3 4 5 6 7 8 9 10 11 12 13 14 15 16 17 18 19 20 21 22 23 24 25 26 27 28 29 30 31 32 33 34 35 36 37 38 39 40 41 42 43 44 45 46 47 48 49 50
000
ASUS44 KLCH 300310
RWRLCH
RWRLCH
REGIONAL WEATHER ROUNDUP
NATIONAL WEATHER SERVICE LAKE CHARLES LA
1000 PM CDT WED JUL 29 2015

Note: "fair" indicates few or no clouds below 12,000 feet with no
significant weather and/or obstructions to visibility.


ACROSS SOUTHEAST TEXAS

CITY           SKY/WX    TMP DP  RH WIND       PRES   REMARKS
BEAUMONT       CLEAR     81  75  82 SW5       30.01R
BEAUMONT CITY    N/A     82  75  79 CALM      30.02R
ORANGE         PTCLDY    84  67  56 CALM      30.03R
JASPER         CLEAR     84  77  80 CALM      30.03R
$$

ACROSS CENTRAL LOUISIANA

CITY           SKY/WX    TMP DP  RH WIND       PRES   REMARKS
LEESVILLE      MOCLDY    86  74  66 E5        30.00R
FULLERTON        N/A     85  72  65 CALM      29.99R
ALEXANDRIA INT   N/A    N/A N/A N/A MISG      29.99R
ESLER FIELD    PTCLDY    83  73  72 CALM      30.01R
DERIDDER         N/A     85  75  71 CALM      30.02R
OAKDALE        MOCLDY    81  78  93 CALM      30.01R
OPELOUSAS        N/A     85  76  74 S8        30.01R
$$

ACROSS SOUTHWEST AND SOUTH CENTRAL LOUISIANA

CITY           SKY/WX    TMP DP  RH WIND       PRES   REMARKS
SULPHUR        PTCLDY    85  75  72 SW5       30.02R
LAKE CHARLES   PTCLDY    85  78  80 SW3       30.01R
CHENNAULT INT  CLEAR     88  79  74 SW6       30.01R HX 102
CAMERON PHI    CLEAR     86  77  74 W5G13     30.04R
DEQUINCY         N/A     83  77  81 S3        30.01R
JENNINGS         N/A     84  76  75 S6        30.02R
LAFAYETTE      CLOUDY    85  73  67 S8        30.02R
NEW IBERIA     CLOUDY    81  74  79 SW5       30.03R
ABBEVILLE        N/A     79  76  91 SW3       30.03R
PATTERSON      CLOUDY    77  73  88 E5        30.06R
SALT POINT       N/A     82  77  84 CALM      30.00S
$$

SELECTED SITES ACROSS THE REGION

CITY           SKY/WX    TMP DP  RH WIND       PRES   REMARKS
HOUSTON BUSH   PTCLDY    88  74  63 S5        30.01R
HOUSTON HOBBY  PTCLDY    85  76  74 S6        30.01R
GALVESTON      CLEAR     85  78  80 SW10      30.03R
COLLEGE STAT   CLEAR     89  67  47 CALM      30.00R
CONROE         CLEAR     87  69  54 S5        30.01R
HUNTSVILLE     CLEAR     87  71  58 S5        30.01R
LUFKIN         CLEAR     82  73  74 CALM      30.00R
SHREVEPORT     PTCLDY    86  72  62 CALM      30.00R
MONROE         CLEAR     86  75  69 SE3       30.01R
NATCHEZ MS     PTCLDY    82  77  83 CALM      30.02R
BATON ROUGE    CLOUDY    82  74  76 E7        30.04R
N.O. INTL ARPT TSTM      80  72  76 CALM      30.06R
SLIDELL        LGT RAIN  76  76 100 SW3       30.03R
$$

MARINE REPORTS

STATION/POSITION TIME  TEMP    WIND        PRES    VSBY  WAVE
                       AIR SEA DIR/SP/G                  HT/PER
                 (UTC) (F)     (DEG/KT/KT) (MB)    (MI)  (FT/S)
BUOY 30 S HIGH I 0250   87 87  230/ 10/ 14 1015.8R         2/ 6
SEA RIM ST PARK  0300   85     240/  8/  9 1016.9R
PORT ARTHUR      0200      90                N/A
SABINE PASS N    0200   85 90                N/A
TEXAS POINT      NOT AVBL
CALCASIEU PASS   0200   87 91                N/A
LK CHARLES BEACH 0200   88 90                N/A
MARSH ISLAND     0200   81      80/ 19/ 24   N/A           0
FRESH WATER LOCK 0200   85 89                N/A
AMERADA PASS     NOT AVBL
$$


USA.gov is the U.S. government's official web portal to all federal, state and local government web resources and services.